Location: Newark
(46.1292°N, 1.0086°W)
Time: 18:12:29
(UTC+00:00)

deb Explorer IX - Visible Passes

Search period start: 15 November 2019 00:00
Search period end: 25 November 2019 00:00
Orbit: 546 x 1105 km, 38.8° (Epoch: 14 November)

Date Brightness Start Highest point End Pass type
(mag) Time Alt. Az. Time Alt. Az. Time Alt. Az.
15 Nov ? 03:48:17 21° SE 03:48:17 21° SE 03:50:10 10° ESE visible
15 Nov ? 05:29:39 19° WSW 05:32:19 33° S 05:36:18 10° ESE visible
16 Nov ? 03:27:33 15° ESE 03:27:33 15° ESE 03:28:23 10° ESE visible
16 Nov ? 05:08:56 27° SW 05:10:26 34° S 05:14:31 10° ESE visible
17 Nov ? 04:48:12 34° SSW 04:48:31 34° S 04:52:44 10° ESE visible
17 Nov ? 06:31:23 10° WSW 06:34:36 18° SSW 06:37:36 10° SSE visible
18 Nov ? 04:27:27 33° SSE 04:27:27 33° SSE 04:30:56 10° ESE visible
18 Nov ? 06:09:20 10° WSW 06:12:42 18° SSW 06:15:48 10° SSE visible
19 Nov ? 04:06:44 25° SE 04:06:44 25° SE 04:09:08 10° ESE visible
19 Nov ? 05:48:06 13° WSW 05:50:46 19° SSW 05:53:59 10° SSE visible
20 Nov ? 03:46:01 18° SE 03:46:01 18° SE 03:47:20 10° ESE visible
20 Nov ? 05:27:24 17° SW 05:28:50 19° SSW 05:32:11 10° SSE visible
21 Nov ? 03:25:20 11° ESE 03:25:20 11° ESE 03:25:31 10° ESE visible
21 Nov ? 05:06:43 20° SSW 05:06:53 20° SSW 05:10:23 10° SSE visible
22 Nov ? 04:46:04 19° S 04:46:04 19° S 04:48:34 10° SSE visible
23 Nov ? 04:25:28 15° S 04:25:28 15° S 04:26:44 10° SSE visible
24 Nov ? 04:04:53 10° SSE 04:04:53 10° SSE 04:04:54 10° SSE visible
